Regional Weather Roundup
Issued by NWS

Home | Current Version | Previous Version | Graphics & Text | Print | Product List | Glossary On
Versions: 1 2 3 4 5 6 7 8 9 10 11 12 13 14 15 16 17 18 19 20 21 22 23 24 25 26 27
000
ASUS45 KBOU 301707
RWRCO

WEATHER ROUNDUP FOR COLORADO
NATIONAL WEATHER SERVICE DENVER/BOULDER CO
1100 AM MDT THU OCT 30 2014

NOTE: "FAIR" INDICATES FEW OR NO CLOUDS BELOW 12000 FEET WITH NO
SIGNIFICANT WEATHER AND/OR OBSTRUCTIONS TO VISIBILITY.

COZ001>005-013-030-031-301800-
...NORTHWEST COLORADO...

CITY           SKY/WX    TMP DP  RH WIND       PRES   REMARKS
CRAIG          SUNNY     51  30  44 CALM      30.40F
HAYDEN         SUNNY     48  27  43 E7        30.42S
MEEKER         SUNNY     49  26  41 CALM      30.41F
MOUNT WERNER   NOT AVBL
STEAMBOAT SPGS SUNNY     45  28  50 CALM      30.43S
WALDEN         SUNNY     48  27  43 S5        30.44S
$$

COZ006>008-011-301800-
...WEST CENTRAL VALLEYS...

CITY           SKY/WX    TMP DP  RH WIND       PRES   REMARKS
GRAND JUNCTION SUNNY     54  21  27 S10       30.37S
MONTROSE       SUNNY     52  19  27 VRB3      30.41F
EAGLE          SUNNY     41  19  42 CALM      30.48F
RIFLE          SUNNY     49  23  36 CALM      30.41F
DELTA          SUNNY     51  20  30 CALM      30.40F
NUCLA          SUNNY     50  18  27 CALM      30.41F
$$

COZ017>023-064>068-301800-
...SOUTHWEST COLORADO...

CITY           SKY/WX    TMP DP  RH WIND       PRES   REMARKS
DURANGO        SUNNY     51  26  37 CALM      30.39S
CORTEZ         SUNNY     55  21  26 CALM      30.36F
PAGOSA SPRINGS SUNNY     53  20  27 CALM      30.43R
TELLURIDE      SUNNY     53  23  31 CALM      30.49F
WOLF CREEK PAS SUNNY     45  12  26 N5        30.61R
$$

COZ009-010-012-014-032>034-037-058>063-301800-
...CENTRAL COLORADO...

CITY           SKY/WX    TMP DP  RH WIND       PRES   REMARKS
ASPEN          SUNNY     50  19  29 NW6       30.44F
BUENA VISTA    SUNNY     50  17  27 E6        30.43F
COPPER MTN     NOT AVBL
BERTHOUD PASS  FAIR      28  25  86 NW23G38   30.56R WCI  14
COTTONWOOD PAS SUNNY     52  14  22 SE6       30.49S
GUNNISON       SUNNY     39  16  38 CALM      30.50F
KREMMLING      SUNNY     41  23  48 NE3         N/A
LEADVILLE      SUNNY     46  16  30 N9        30.49S
SALIDA         SUNNY     50  18  28 E3        30.50F
SUNLIGHT       SUNNY     43  21  42 N3        30.57S
WILKERSON PASS NOT AVBL
$$

COZ069>075-301800-
...SAN LUIS VALLEY/SANGRE DE CRISTO MOUNTAINS...

CITY           SKY/WX    TMP DP  RH WIND       PRES   REMARKS
ALAMOSA        SUNNY     50  14  23 CALM      30.43S
LA VETA PASS   NOT AVBL
SAGUACHE       SUNNY     54  16  22 NW12      30.43F
$$

COZ035-036-038>040-301800-
...NORTHERN COLORADO FRONT RANGE...

CITY           SKY/WX    TMP DP  RH WIND       PRES   REMARKS
DENVER INTL AP MOSUNNY   54  25  32 S5        30.39F
DMNS CITY PARK   N/A     57  26  30 S6        30.39S
AURORA         MOSUNNY   53  25  33 CALM      30.40F
FRONT RANGE AP NOT AVBL
ERIE MUNI ARPT SUNNY     57  24  27 SE3       30.38S
BOULDER MUN AP SUNNY     55  27  33 SE5       30.38S
CENTENNIAL     MOSUNNY   52  25  35 VRB6      30.40F
BROOMFIELD     MOSUNNY   55  25  30 SE7       30.40S
FORT COLLINS   SUNNY     55  27  33 S9        30.39F
LONGMONT       SUNNY     60  27  28 S6        30.39F
$$

COZ041-046-047-076>085-087-088-301800-
...PIKES PEAK/PALMER DIVIDE AND SOUTHERN FOOTHILLS...

CITY           SKY/WX    TMP DP  RH WIND       PRES   REMARKS
COLO. SPRINGS  SUNNY     56  23  27 VRB3      30.42S
A. F. ACADEMY  SUNNY     52  22  30 CALM      30.42R
ELLICOTT       SUNNY     55  23  28 VRB3      30.41R
FALCON         SUNNY     53  23  30 NE7       30.44S
FORT CARSON    SUNNY     56  24  29 S2        30.41S
LIMON          SUNNY     55  24  30 N10       30.39S
MONUMENT HILL  SUNNY     46  23  39 E5        30.42S
TRINIDAD       SUNNY     57  21  24 VRB5      30.40F
$$

COZ042>045-048>051-090-091-301800-
...NORTHEAST COLORADO...

CITY           SKY/WX    TMP DP  RH WIND       PRES   REMARKS
GREELEY ARPT   SUNNY     57  28  33 SW3       30.39S
AKRON          SUNNY     53  28  38 W10       30.37S
BURLINGTON     SUNNY     59  27  29 N14       30.35S
WRAY           SUNNY     63  29  28 NW10      30.33S
STERLING       SUNNY     61  34  36 N7        30.34F
HOLYOKE        SUNNY     61  30  31 N18       30.32
FORT MORGAN    SUNNY     56  25  29 N7        30.38S
$$

COZ086-089-092>099-301800-
...SOUTHEAST COLORADO...

CITY           SKY/WX    TMP DP  RH WIND       PRES   REMARKS
PUEBLO         SUNNY     61  24  24 NE7       30.38F
LA JUNTA       SUNNY     59  26  28 N3        30.37S
LAMAR          SUNNY     60  29  30 W6        30.34S
SPRINGFIELD      N/A     60  25  26 N13       30.35R
$$



USA.gov is the U.S. government's official web portal to all federal, state and local government web resources and services.